OK5TVR-6 Weather Reports


time (UTC)temp
F
wind
direction
speed
knots
gust
knots
rain 1hr
in
rain 24hr
in
rain mn
in
humidity
%
barometer
mb
20260502130337 99 180 20.0 0.0 0.00 0.00 0.00 1014.1
20260502122704 94 315 44.3 0.0 0.00 0.00 0.00 1014.6
20260502120847 93 135 58.2 0.0 0.00 0.00 0.00 1014.9
20260502115031 92 180 30.4 0.0 0.00 0.00 0.00 1012.6
20260502113214 89 0 60.0 0.0 0.00 0.00 0.00 1015.2
20260502111357 87 135 17.4 0.0 0.00 0.00 0.00 1015.6
20260502105541 87 0 58.2 0.0 0.00 0.00 0.00 1015.6
20260502103724 89 0 17.4 0.0 0.00 0.00 0.00 1015.9
20260502101908 87 90 40.0 0.0 0.00 0.00 0.00 1016.0
20260502090601 78 270 11.3 0.0 0.00 0.00 0.00 1017.0
20260502065818 60 0 12.2 0.0 0.00 0.00 0.00 1017.8
20260502064001 58 222 0.0 0.0 0.00 0.00 0.00 1017.9
20260502062144 55 180 0.0 0.0 0.00 0.00 0.00 1018.0
20260502060328 53 222 0.0 0.0 0.00 0.00 0.00 1018.1
20260502054511 50 0 0.0 0.0 0.00 0.00 0.00 1018.0
20260502052655 47 180 0.0 0.0 0.00 0.00 0.00 1018.1
20260502050838 44 222 0.0 0.0 0.00 0.00 0.00 1018.2
20260502045022 41 222 0.0 0.0 0.00 0.00 0.00 1018.1
20260502043205 39 0 20.0 0.0 0.00 0.00 0.00 1018.1
20260502041349 38 90 13.9 0.0 0.00 0.00 0.00 1018.1
20260502035532 37 135 27.8 0.0 0.00 0.00 0.00 1018.3
20260502033715 37 90 0.0 0.0 0.00 0.00 0.00 1018.4
20260502031859 37 180 20.9 0.0 0.00 0.00 0.00 1018.3
20260502030042 38 135 6.1 0.0 0.00 0.00 0.00 1018.4
20260502024226 39 180 6.1 0.0 0.00 0.00 0.00 1018.4
20260502022409 39 135 13.9 0.0 0.00 0.00 0.00 1018.7
20260502014736 39 180 19.1 0.0 0.00 0.00 0.00 1018.6
20260502012919 39 135 6.1 0.0 0.00 0.00 0.00 1018.7
20260502011103 40 0 13.0 0.0 0.00 0.00 0.00 1018.8
20260502005246 41 135 27.8 0.0 0.00 0.00 0.00 1018.9
20260502003430 41 90 0.0 0.0 0.00 0.00 0.00 1019.0
20260502001613 42 270 6.1 0.0 0.00 0.00 0.00 1019.1
20260501235757 43 180 13.9 0.0 0.00 0.00 0.00 1019.2
20260501233940 43 135 0.0 0.0 0.00 0.00 0.00 1019.1
20260501230307 44 0 7.0 0.0 0.00 0.00 0.00 1019.2
20260501224451 44 0 14.8 0.0 0.00 0.00 0.00 1019.4
20260501222634 45 90 0.0 0.0 0.00 0.00 0.00 1019.4
20260501220817 47 180 13.0 0.0 0.00 0.00 0.00 1019.5
20260501215001 48 0 0.0 0.0 0.00 0.00 0.00 1019.4
20260501213144 49 222 0.0 0.0 0.00 0.00 0.00 1019.4
20260501211328 49 222 0.0 0.0 0.00 0.00 0.00 1019.4
20260501205511 50 180 0.0 0.0 0.00 0.00 0.00 1019.3
20260501203655 51 0 13.9 0.0 0.00 0.00 0.00 1019.2
20260501201838 53 135 0.0 0.0 0.00 0.00 0.00 1019.2
20260501200022 55 0 0.0 0.0 0.00 0.00 0.00 1019.3
20260501194205 56 0 0.0 0.0 0.00 0.00 0.00 1019.3
20260501192348 56 0 27.8 0.0 0.00 0.00 0.00 1019.2
20260501190532 57 0 20.9 0.0 0.00 0.00 0.00 1019.1
20260501184715 59 45 20.9 0.0 0.00 0.00 0.00 1019.1
20260501182859 63 90 26.9 0.0 0.00 0.00 0.00 1019.0
20260501181042 70 180 24.3 0.0 0.00 0.00 0.00 1018.8
20260501175226 81 90 28.7 0.0 0.00 0.00 0.00 1018.8
20260501173409 87 90 16.5 0.0 0.00 0.00 0.00 1018.6
20260501171553 91 0 20.0 0.0 0.00 0.00 0.00 1018.6
20260501165736 93 90 38.2 0.0 0.00 0.00 0.00 1018.7
20260501163919 94 90 38.2 0.0 0.00 0.00 0.00 1018.8
20260501162103 96 135 16.5 0.0 0.00 0.00 0.00 1018.8
20260501160246 96 0 0.0 0.0 0.00 0.00 0.00 1018.8
20260501154430 98 0 16.5 0.0 0.00 0.00 0.00 1019.0
20260501152613 96 0 40.0 0.0 0.00 0.00 0.00 1019.2
20260501150756 95 0 4.3 0.0 0.00 0.00 0.00 1019.3
20260501144940 97 222 0.0 0.0 0.00 0.00 0.00 1019.4
20260501143123 94 0 32.2 0.0 0.00 0.00 0.00 1019.5